File backup.txt content, last update Monday February 6 2023, 12:45:18


1675652766 Temp=29.13*C Humidity=15.34% Pressure=101819.52Pa
1675652827 Temp=29.14*C Humidity=15.13% Pressure=101817.57Pa
1675652886 Temp=28.96*C Humidity=15.21% Pressure=101811.09Pa
1675652946 Temp=28.88*C Humidity=15.38% Pressure=101810.41Pa
1675653006 Temp=28.99*C Humidity=15.35% Pressure=101806.20Pa
1675653067 Temp=28.75*C Humidity=15.11% Pressure=101807.29Pa
1675653126 Temp=28.45*C Humidity=15.13% Pressure=101810.77Pa
1675653187 Temp=28.02*C Humidity=15.47% Pressure=101803.34Pa
1675653246 Temp=27.94*C Humidity=15.66% Pressure=101798.59Pa
1675653306 Temp=28.09*C Humidity=15.96% Pressure=101793.91Pa
1675653366 Temp=28.37*C Humidity=16.19% Pressure=101789.91Pa
1675653426 Temp=28.65*C Humidity=16.00% Pressure=101787.95Pa
1675653486 Temp=28.78*C Humidity=15.56% Pressure=101783.40Pa
1675653546 Temp=28.76*C Humidity=15.57% Pressure=101778.26Pa
1675653606 Temp=28.80*C Humidity=15.72% Pressure=101778.95Pa
1675653666 Temp=28.81*C Humidity=15.72% Pressure=101777.17Pa
1675653726 Temp=28.73*C Humidity=15.41% Pressure=101774.99Pa
1675653786 Temp=28.58*C Humidity=15.33% Pressure=101768.31Pa
1675653846 Temp=28.18*C Humidity=15.29% Pressure=101771.52Pa
1675653907 Temp=27.81*C Humidity=15.69% Pressure=101768.77Pa
1675653966 Temp=27.70*C Humidity=15.90% Pressure=101762.28Pa
1675654026 Temp=27.69*C Humidity=15.94% Pressure=101761.45Pa
1675654086 Temp=27.80*C Humidity=16.09% Pressure=101760.55Pa
1675654147 Temp=27.85*C Humidity=16.02% Pressure=101756.55Pa
1675654206 Temp=27.90*C Humidity=15.63% Pressure=101754.59Pa
1675654266 Temp=27.63*C Humidity=15.66% Pressure=101748.12Pa
1675654326 Temp=27.34*C Humidity=15.64% Pressure=101745.14Pa
1675654386 Temp=27.08*C Humidity=15.75% Pressure=101742.62Pa
1675654446 Temp=26.87*C Humidity=15.76% Pressure=101740.26Pa
1675654506 Temp=26.65*C Humidity=15.92% Pressure=101739.56Pa
1675654566 Temp=26.42*C Humidity=16.14% Pressure=101742.15Pa
1675654626 Temp=26.06*C Humidity=16.20% Pressure=101746.52Pa
1675654686 Temp=25.56*C Humidity=16.43% Pressure=101747.94Pa
1675654746 Temp=25.15*C Humidity=16.79% Pressure=101743.74Pa
1675654806 Temp=24.69*C Humidity=16.90% Pressure=101747.33Pa
1675654866 Temp=24.36*C Humidity=17.20% Pressure=101746.01Pa
1675654926 Temp=24.13*C Humidity=17.42% Pressure=101734.41Pa
1675654987 Temp=23.89*C Humidity=17.58% Pressure=101744.45Pa
1675655047 Temp=23.72*C Humidity=17.80% Pressure=101743.27Pa
1675655106 Temp=23.55*C Humidity=17.92% Pressure=101738.22Pa
Showing last 40 lines from file [/srv/app/pi-web01/chroot/pi-ws01/var/backup.txt] (60 total lines).

Station Logs

File Name
sensor.txt
backup.txt
outlier.log
rrd.log
pi-solar.log
Display Limit